KLM1761 EHAM-EDDW

Flight info

Callsign KLM1761
Flight time N/A
Altitude 23000
Route ANDIK M105 REVLA T948 GIBMA GIBMA2P
Aircraft L101/H-SDFHIRWXY/S

Departure

Time N/A
Airport Amsterdam Airport Schiphol (EHAM)

Arrival

Time 2026-05-07 14:52
Airport Bremen Airport (EDDW)
Time Latitude Longitude Altitude Speed Heading
2026-05-07 14:28 53.14628 7.22587 19810 ft 342 kts 73°
2026-05-07 14:28 53.15322 7.26397 19356 ft 339 kts 73°
2026-05-07 14:29 53.16016 7.30139 18905 ft 337 kts 72°
2026-05-07 14:29 53.16725 7.33850 18471 ft 335 kts 72°
2026-05-07 14:29 53.17439 7.37528 17997 ft 332 kts 72°
2026-05-07 14:29 53.18149 7.41183 17549 ft 330 kts 72°
2026-05-07 14:30 53.18839 7.44749 17108 ft 325 kts 72°
2026-05-07 14:30 53.19527 7.48303 16653 ft 319 kts 72°
2026-05-07 14:30 53.20207 7.51811 16202 ft 316 kts 72°
2026-05-07 14:30 53.20884 7.55297 15750 ft 314 kts 72°
2026-05-07 14:31 53.21552 7.58747 15297 ft 308 kts 72°
2026-05-07 14:31 53.22201 7.62115 14841 ft 303 kts 72°
2026-05-07 14:31 53.22841 7.65454 14394 ft 301 kts 72°
2026-05-07 14:31 53.23475 7.68770 13948 ft 299 kts 72°
2026-05-07 14:32 53.24104 7.72060 13494 ft 296 kts 72°
2026-05-07 14:32 53.24732 7.75326 13032 ft 294 kts 72°
2026-05-07 14:32 53.25355 7.78565 12592 ft 292 kts 72°
2026-05-07 14:32 53.25969 7.81765 12351 ft 288 kts 72°
2026-05-07 14:33 53.26578 7.84951 12198 ft 288 kts 72°
2026-05-07 14:33 53.27185 7.88137 12019 ft 288 kts 72°
2026-05-07 14:33 53.27792 7.91324 11852 ft 287 kts 72°
2026-05-07 14:33 53.28397 7.94499 11673 ft 286 kts 72°
2026-05-07 14:34 53.29002 7.97668 11499 ft 285 kts 72°
2026-05-07 14:34 53.29593 8.00774 11325 ft 284 kts 72°
2026-05-07 14:34 53.30188 8.03905 11152 ft 283 kts 72°
2026-05-07 14:34 53.30780 8.07031 10977 ft 281 kts 72°
2026-05-07 14:35 53.31369 8.10149 10803 ft 280 kts 72°
2026-05-07 14:35 53.31904 8.13265 10613 ft 279 kts 79°
2026-05-07 14:35 53.32049 8.16481 10440 ft 277 kts 91°
2026-05-07 14:35 53.31911 8.19698 10290 ft 276 kts 94°
2026-05-07 14:36 53.31821 8.22904 10142 ft 275 kts 90°
2026-05-07 14:36 53.31830 8.26084 10093 ft 274 kts 89°
2026-05-07 14:36 53.31831 8.29275 10082 ft 274 kts 90°
2026-05-07 14:36 53.31757 8.32459 10065 ft 274 kts 93°
2026-05-07 14:37 53.31620 8.35636 10063 ft 274 kts 94°
2026-05-07 14:37 53.31295 8.41961 9864 ft 273 kts 94°
2026-05-07 14:37 53.31136 8.45062 9651 ft 264 kts 94°
2026-05-07 14:38 53.30980 8.48101 9452 ft 261 kts 94°
2026-05-07 14:38 53.30823 8.51114 9250 ft 259 kts 94°
2026-05-07 14:38 53.30662 8.54114 9050 ft 258 kts 94°
2026-05-07 14:38 53.30502 8.57090 8850 ft 256 kts 94°
2026-05-07 14:39 53.30341 8.60064 8649 ft 255 kts 94°
2026-05-07 14:39 53.30120 8.62967 8438 ft 255 kts 104°
2026-05-07 14:39 53.29326 8.65585 8191 ft 255 kts 129°
2026-05-07 14:39 53.28030 8.67601 8021 ft 256 kts 139°
2026-05-07 14:40 53.26635 8.69461 7850 ft 256 kts 139°
2026-05-07 14:40 53.25280 8.71378 7661 ft 254 kts 137°
2026-05-07 14:40 53.23961 8.73303 7455 ft 247 kts 140°
2026-05-07 14:40 53.22463 8.74652 7182 ft 246 kts 163°
2026-05-07 14:41 53.20774 8.74877 6931 ft 247 kts 188°
2026-05-07 14:41 53.19205 8.73778 6676 ft 247 kts 218°
2026-05-07 14:41 53.18160 8.71539 6462 ft 247 kts 248°
2026-05-07 14:41 53.17797 8.68761 6315 ft 248 kts 266°
2026-05-07 14:42 53.17741 8.65884 6184 ft 248 kts 271°
2026-05-07 14:42 53.17781 8.63020 6048 ft 248 kts 273°
2026-05-07 14:42 53.17850 8.60144 5853 ft 248 kts 273°
2026-05-07 14:42 53.17925 8.57314 5638 ft 246 kts 274°
2026-05-07 14:43 53.18006 8.54471 5451 ft 245 kts 274°
2026-05-07 14:43 53.18088 8.51605 5281 ft 245 kts 274°
2026-05-07 14:43 53.18171 8.48804 5038 ft 246 kts 274°
2026-05-07 14:43 53.18254 8.45962 4723 ft 244 kts 274°
2026-05-07 14:44 53.18334 8.43146 4436 ft 242 kts 274°
2026-05-07 14:44 53.18201 8.40368 4133 ft 242 kts 251°
2026-05-07 14:44 53.17321 8.38043 3808 ft 237 kts 220°
2026-05-07 14:44 53.15893 8.36775 3543 ft 233 kts 194°
2026-05-07 14:45 53.14308 8.36210 3358 ft 231 kts 186°
2026-05-07 14:45 53.12745 8.35862 3225 ft 224 kts 184°
2026-05-07 14:45 53.11206 8.35868 3114 ft 219 kts 166°
2026-05-07 14:45 53.09788 8.36714 3084 ft 217 kts 149°
2026-05-07 14:46 53.08561 8.38146 3082 ft 214 kts 135°
2026-05-07 14:46 53.07524 8.39920 3087 ft 214 kts 129°
2026-05-07 14:46 53.06552 8.41790 3062 ft 214 kts 128°
2026-05-07 14:46 53.05606 8.43654 3066 ft 214 kts 127°
2026-05-07 14:47 53.04675 8.45497 3102 ft 196 kts 127°
2026-05-07 14:47 53.04107 8.47399 3084 ft 181 kts 100°
2026-05-07 14:47 53.04003 8.49471 3079 ft 179 kts 90°
2026-05-07 14:47 53.04015 8.51545 2927 ft 178 kts 87°
2026-05-07 14:48 53.04057 8.53583 2779 ft 175 kts 86°
2026-05-07 14:48 53.04104 8.55543 2569 ft 162 kts 86°
2026-05-07 14:48 53.04148 8.57336 2344 ft 148 kts 85°
2026-05-07 14:48 53.04189 8.58978 2194 ft 141 kts 85°
2026-05-07 14:49 53.04233 8.60709 2086 ft 156 kts 85°
2026-05-07 14:49 53.04277 8.62551 1824 ft 160 kts 86°
2026-05-07 14:49 53.04321 8.64332 1568 ft 148 kts 85°
2026-05-07 14:49 53.04362 8.65987 1410 ft 147 kts 86°
2026-05-07 14:50 53.04406 8.67732 1260 ft 154 kts 87°
2026-05-07 14:50 53.04469 8.69463 1042 ft 148 kts 85°
2026-05-07 14:50 53.04497 8.71181 788 ft 149 kts 86°
2026-05-07 14:50 53.04542 8.72902 555 ft 149 kts 87°
2026-05-07 14:51 53.04589 8.74623 360 ft 149 kts 86°
2026-05-07 14:51 53.04633 8.76337 153 ft 149 kts 88°
2026-05-07 14:51 53.04672 8.78013 28 ft 129 kts 89°
2026-05-07 14:51 53.04688 8.79192 28 ft 78 kts 85°
2026-05-07 14:52 53.04709 8.79768 24 ft 29 kts 88°
2026-05-07 14:52 53.04826 8.79953 25 ft 26 kts 332°
2026-05-07 14:52 53.04873 8.79709 30 ft 8 kts 269°
2026-05-07 14:52 53.04872 8.79671 29 ft 7 kts 269°
2026-05-07 14:53 53.04872 8.79619 29 ft 12 kts 269°